Weather History for Bozeman, MT

Change the Weather History Date:

Monday, November 19, 2012

  Actual Average Record
Temperature  
Mean Temperature 36 °F 30 °F  
Max Temperature 50 °F 43 °F 67 °F (1989)
Min Temperature 22 °F 18 °F -7 °F (1975)
Degree Days  
Heating Degree Days 29    
Month to date heating degree days 618  
Since 1 July heating degree days 1551  
Cooling Degree Days 0    
Month to date cooling degree days 0  
Year to date cooling degree days 284  
Moisture  
Dew Point 26 °F    
Average Humidity 69    
Maximum Humidity 92    
Minimum Humidity 46    
Precipitation  
Precipitation 0.00 in 0.02 in 0.61 in (1979)
Month to date precipitation 0.69 0.50  
Year to date precipitation 8.32 13.21  
Snow  
Snow 0.00 in 0.20 in 5.00 in (1979)
Month to date snowfall 10.5 2.8  
Since 1 July snowfall 10.5 5.0  
Since 1 September snowfall 10.5 5.0  
Snow Depth 3.00 in    
Sea Level Pressure  
Sea Level Pressure 30.10 in    
Wind  
Wind Speed 4 mph (SE)    
Max Wind Speed 20 mph    
Max Gust Speed 23 mph    
Visibility 10 miles    
Events      
T = Trace of Precipitation, MM = Missing Value Source: NWS Daily Summary

Daily Weather History Graph

Daily Weather History Graph

Search for Another Location

Airport:

Trip Planner

Search our weather history database for the weather conditions in past years. The results will help you decide how hot, cold, wet, or windy it might be!

Date:

Astronomy

Nov. 19, 2012 Rise Set
Actual Time 7:30 AM MST 4:49 PM MST
Civil Twilight 6:58 AM MST 5:21 PM MST
Nautical Twilight 6:21 AM MST 5:58 PM MST
Astronomical Twilight 5:46 AM MST 6:33 PM MST
Moon 12:28 PM MST (11/19) 11:29 PM MST (11/19)
Length of Visible Light 10h 23m
Length of Day
9h 18m
Waxing Crescent, 41% of the Moon is Illuminated
Nov 19
Waxing Crescent
Nov 20
First Quarter
Nov 28
Full
Dec 6
Last Quarter
Dec 13
New

Hourly Weather History & Observations

Time (MST) Temp. Windchill Dew Point Humidity Pressure Visibility Wind Dir Wind Speed Gust Speed Precip Events Conditions
12:56 AM 30.0 °F 23.2 °F 25.0 °F 82% 30.11 in 9.0 mi SE 6.9 mph - N/A   Clear
1:56 AM 28.9 °F 25.2 °F 25.0 °F 85% 30.10 in 9.0 mi East 3.5 mph - N/A   Clear
2:56 AM 27.0 °F 23.0 °F 24.1 °F 89% 30.12 in 10.0 mi SW 3.5 mph - N/A   Scattered Clouds
3:56 AM 27.0 °F - 21.9 °F 81% 30.14 in 9.0 mi Calm Calm - N/A   Clear
4:56 AM 24.8 °F 16.1 °F 19.4 °F 80% 30.03 in 10.0 mi SE 8.1 mph - N/A   Clear
5:56 AM 26.1 °F 18.4 °F 21.0 °F 81% 30.11 in 10.0 mi ESE 6.9 mph - N/A   Clear
6:56 AM 28.0 °F 22.8 °F 19.0 °F 69% 30.11 in 10.0 mi South 4.6 mph - N/A   Clear
7:56 AM 27.0 °F - 19.9 °F 75% 30.14 in 10.0 mi Calm Calm - N/A   Clear
8:56 AM 25.0 °F 20.7 °F 19.9 °F 81% 30.17 in 10.0 mi West 3.5 mph - N/A   Clear
9:56 AM 30.9 °F 27.5 °F 23.0 °F 72% 30.17 in 10.0 mi ESE 3.5 mph - N/A   Clear
10:56 AM 35.1 °F - 26.1 °F 70% 30.16 in 10.0 mi Calm Calm - N/A   Clear
11:56 AM 39.0 °F 36.8 °F 28.9 °F 67% 30.12 in 10.0 mi NNW 3.5 mph - N/A   Clear
12:56 PM 41.0 °F 37.1 °F 30.0 °F 65% 30.09 in 10.0 mi NE 5.8 mph - N/A   Clear
1:56 PM 45.0 °F - 30.0 °F 56% 30.09 in 10.0 mi Calm Calm - N/A   Clear
2:56 PM 45.0 °F - 28.0 °F 52% 30.09 in 10.0 mi Calm Calm - N/A   Clear
3:56 PM 45.0 °F 40.6 °F 28.9 °F 53% 30.09 in 10.0 mi South 8.1 mph - N/A   Clear
4:56 PM 45.0 °F 43.5 °F 28.0 °F 52% 30.10 in 10.0 mi SSW 3.5 mph - N/A   Clear
5:56 PM 44.1 °F 39.5 °F 28.0 °F 53% 30.10 in 10.0 mi South 8.1 mph - N/A   Clear
6:56 PM 39.0 °F 34.0 °F 28.9 °F 67% 30.10 in 10.0 mi South 6.9 mph - N/A   Clear
7:56 PM 36.0 °F 30.3 °F 28.0 °F 73% 30.11 in 10.0 mi ENE 6.9 mph - N/A   Clear
8:56 PM 41.0 °F 35.8 °F 28.9 °F 62% 30.09 in 10.0 mi East 8.1 mph - N/A   Partly Cloudy
9:56 PM 48.0 °F - 28.0 °F 46% 30.04 in 10.0 mi SW 8.1 mph - N/A   Clear
10:56 PM 48.0 °F - 28.0 °F 46% 30.01 in 10.0 mi NE 4.6 mph - N/A   Partly Cloudy
11:56 PM 45.0 °F - 28.0 °F 52% 30.01 in 10.0 mi Calm Calm - N/A   Clear